This is the latest recevied weather packets stored in our database for station/object VA7NIC-10. If no packets are shown the sender has not sent any weather packets the latest 10 day(s).
| Time | Temp. | Humidity | Pressure | Rain* | Wind** | Luminosity | Snow |
|---|---|---|---|---|---|---|---|
| 1777868521 | 23.33° C | 35% | 1008.6 hPa | 0 mm | - | - | - |
| 1777867621 | 24.44° C | 31% | 1008.5 hPa | 0 mm | - | - | - |
| 1777866721 | 24.44° C | 29% | 1008.5 hPa | 0 mm | - | - | - |
| 1777865821 | 25° C | 30% | 1008.5 hPa | 0 mm | - | - | - |
| 1777864921 | 25.56° C | 29% | 1008.6 hPa | 0 mm | - | - | - |
| 1777864021 | 26.11° C | 27% | 1008.7 hPa | 0 mm | - | - | - |
| 1777863121 | 26.11° C | 25% | 1008.7 hPa | 0 mm | - | - | - |
| 1777862222 | 26.67° C | 24% | 1008.7 hPa | 0 mm | - | - | - |
| 1777861322 | 26.67° C | 25% | 1008.7 hPa | 0 mm | - | - | - |
| 1777860422 | 26.67° C | 23% | 1008.8 hPa | 0 mm | - | - | - |
| 1777859522 | 27.22° C | 23% | 1008.9 hPa | 0 mm | - | - | - |
| 1777858622 | 27.22° C | 21% | 1009 hPa | 0 mm | - | - | - |
| 1777857722 | 27.22° C | 21% | 1009.1 hPa | 0 mm | - | - | - |
| 1777856821 | 27.22° C | 22% | 1009.1 hPa | 0 mm | - | - | - |
| 1777855921 | 27.78° C | 22% | 1009.3 hPa | 0 mm | - | - | - |
| 1777855021 | 27.78° C | 21% | 1009.4 hPa | 0 mm | - | - | - |
| 1777854121 | 27.78° C | 19% | 1009.6 hPa | 0 mm | - | - | - |
| 1777853221 | 27.78° C | 20% | 1009.7 hPa | 0 mm | - | - | - |
| 1777852321 | 27.78° C | 20% | 1009.8 hPa | 0 mm | - | - | - |
| 1777851421 | 27.78° C | 21% | 1010 hPa | 0 mm | - | - | - |
| 1777850521 | 27.78° C | 21% | 1010.2 hPa | 0 mm | - | - | - |
| 1777849622 | 27.78° C | 22% | 1010.3 hPa | 0 mm | - | - | - |
| 1777848722 | 27.78° C | 24% | 1010.4 hPa | 0 mm | - | - | - |
| 1777847822 | 27.78° C | 24% | 1010.6 hPa | 0 mm | - | - | - |
| 1777846922 | 27.78° C | 24% | 1010.8 hPa | 0 mm | - | - | - |
* Rain latest hour (hover to see other rain measurements)
** Current wind speed in m/s (hover to see current wind gust speed)